Regional Weather Roundup
Issued by NWS

Home | Current Version | Previous Version | Text Only | Print | Product List | Glossary On
Versions: 1 2 3 4 5 6 7 8 9 10 11 12 13 14 15 16 17 18 19 20 21 22 23 24 25 26 27 28 29 30 31 32 33 34 35 36 37 38 39 40 41 42 43 44 45 46 47 48 49 50
000
ASUS42 KFFC 221403
RWRGA
WEATHER ROUNDUP FOR GEORGIA
NATIONAL WEATHER SERVICE PEACHTREE CITY GA
1000 AM EDT MON SEP 22 2014

NOTE: "FAIR" INDICATES FEW OR NO CLOUDS BELOW 12,000 FEET WITH NO
SIGNIFICANT WEATHER AND/OR OBSTRUCTIONS TO VISIBILITY.

* = USE WITH CAUTION. THE STATIONS MARKED WITH AN ASTERISK MAY NOT
REPORT WEATHER SUCH AS PRECIPITATION, FOG, OR THUNDER AND ARE NOT
QUALITY CONTROLLED BY NWS.

THE REMARK "TC" DENOTES TEMPERATURE READING IN DEGREES CELSIUS.

GAZ001>058-221500-
NORTH GEORGIA

CITY           SKY/WX    TMP DP  RH WIND       PRES   REMARKS
ATLANTA        PTSUNNY   67  59  75 NW7       30.06S
ATHENS         CLOUDY    69  65  86 N3        30.04S
CHAMBLEE       MOSUNNY   69  55  60 NW7       30.07R
PEACHTREE CITY CLOUDY    66  63  90 NW6       30.07R
ROME           SUNNY     69  52  54 N10       30.09R
WEST ATLANTA   PTSUNNY   68  57  68 NW6       30.07R
GAINESVILLE    MOSUNNY   67  54  63 NW8       30.08R
CARTERSVILLE   MOSUNNY   66  55  67 N3        30.10R


CITY           SKY/WX    TMP DP  RH WIND       PRES   REMARKS
DALTON*        SUNNY     63  55  77 N3G18     30.10R
LAWRENCEVILLE* SUNNY     68  55  64 W5        30.06R
MARIETTA       PTSUNNY   68  56  65 NW7       30.08R
KENNESAW*      MOSUNNY   64  54  68 NW6       30.10R
$$

GAZ059>098-102>109-221500-
CENTRAL GEORGIA

CITY           SKY/WX    TMP DP  RH WIND       PRES   REMARKS
AUGUSTA-BUSH   CLOUDY    75  64  68 N8        30.03R
AUGUSTA-DANIEL HVY RAIN  70  66  87 NE9       30.04R FOG
COLUMBUS       PTSUNNY   73  60  63 NE10      30.04R
MACON          CLOUDY    74  67  78 N3        30.02S
ROBINS AFB     PTSUNNY   75  66  75 NE5       30.01F


CITY           SKY/WX    TMP DP  RH WIND       PRES   REMARKS
LAGRANGE*      CLOUDY    68  65  91 CALM      30.07R
SYLVANIA*      MOSUNNY   81  71  71 NW5       30.04R
$$

GAZ099>101-110>166-221500-
SOUTH GEORGIA

CITY           SKY/WX    TMP DP  RH WIND       PRES   REMARKS
SAVANNAH       MOSUNNY   77  62  59 W7        30.04S
VALDOSTA       SUNNY     77  68  73 CALM      30.06R
ALMA           SUNNY     75  64  68 S5        30.04S
ST SIMONS      SUNNY     79  69  71 SW12      30.06R
FT STEWART     SUNNY     78  63  58 SW7       30.03S
ALBANY         MOSUNNY   74  68  81 SW3       30.06R
HUNTER AFB     SUNNY     78  64  61 W9        30.02S
MOODY AFB      SUNNY     76  67  75 NW3       30.05R
BRUNSWICK      SUNNY     79  68  69 W9        30.06R


CITY           SKY/WX    TMP DP  RH WIND       PRES   REMARKS
BAINBRIDGE*    SUNNY     79  72  78 W3        30.05R
MOULTRIE*      MOSUNNY   75  70  83 CALM      30.05S
VIDALIA*       SUNNY     79  64  61 NW7       30.04R
DOUGLAS*       SUNNY     77  64  65 SW3       30.06R
$$


USA.gov is the U.S. government's official web portal to all federal, state and local government web resources and services.